Voltar ao catálogo

USA 74-77 DEB

AtivoVLEO
NORAD 25591·DEBRIS·🇺🇸 United States

Lançado Nov 8, 1991 de Vandenberg Space Force Base

Loading…

Próximas Passagens (próximas 24 horas)

TLE

ObsoletoSource: Space-Track

Época: Dec 31, 1998, 12:32 UTC

1 25591U 91076L   98365.52288517  .10587174  76253-5  12451-2 0  9990
2 25591 064.8500 050.5323 0187071 047.9989 313.7957 16.00963826    12

Acompanhe USA 74-77 DEB em tempo real com AllMySat

Download on the App Store